Temperature
21 21 22 21 19 17 19 20 20 21 21 21 21 20 19 19 19 18 18 18 18 18 18 18 18 18 18 18 18 18 18 18 18 18 18 18 18 18 18 18 18 18 18 18 18 18 18 18 18
22 22 22 21 17 18 19 20 21 22 22 22 21 20 19 18 18 18 18 18 18 18 18 18 18 18 18 18 18 18 18 18 18 18 18 18 18 18 18 18 18 18 18 18 18 18 18 18 18
22 22 21 18 18 19 20 21 21 22 22 22 21 20 20 19 18 18 18 18 18 18 18 18 18 18 18 18 18 18 18 18 18 18 17 17 17 18 18 18 18 18 18 18 18 18 18 18 17
22 22 21 18 20 20 21 21 21 22 22 21 20 19 19 19 19 18 18 18 18 18 18 18 18 18 18 18 18 18 18 18 18 18 17 17 17 17 18 18 18 18 18 18 17 17 17 17 17
22 21 18 19 20 20 21 22 22 21 21 21 20 19 19 19 19 18 18 18 18 18 18 18 18 18 18 18 17 17 17 17 17 17 17 17 17 17 17 17 17 17 17 17 17 17 17 17 17
22 19 18 19 20 21 21 22 22 21 21 20 20 19 19 19 19 19 18 18 18 18 18 18 18 18 18 18 17 17 17 17 17 17 17 17 17 17 17 17 17 17 17 17 17 17 17 17 17
21 18 19 19 20 21 22 22 22 21 21 21 20 18 19 19 19 19 19 19 18 18 18 18 18 18 18 18 17 17 17 17 17 17 17 17 17 17 17 17 17 17 17 17 17 17 17 17 17
22 18 19 19 20 21 22 23 22 22 21 21 21 19 19 19 19 19 19 19 18 18 18 18 18 18 18 17 17 17 17 17 17 17 17 17 17 17 17 17 17 17 17 17 16 16 16 16 16
23 18 19 20 20 21 22 22 22 22 22 21 21 20 20 19 19 19 19 18 18 18 18 18 18 18 18 17 17 17 17 17 17 17 17 17 17 17 17 16 16 16 16 16 16 16 16 16 16
22 19 20 21 21 21 22 22 22 21 21 20 20 20 20 19 19 19 19 19 18 18 18 18 18 18 18 18 17 17 17 17 17 17 17 17 17 16 16 16 16 16 16 16 16 16 16 16 16
21 20 21 22 23 23 22 22 22 21 19 20 20 20 20 19 19 19 19 19 19 19 18 18 18 18 18 18 17 17 17 17 17 17 17 17 17 16 16 16 16 16 16 16 16 16 16 16 16
21 22 22 22 23 23 22 22 21 21 21 22 21 21 20 20 19 19 19 19 19 19 18 18 18 18 18 18 17 17 17 17 17 17 17 17 17 16 16 16 16 16 16 16 16 16 16 16 16
22 22 23 23 23 23 22 22 22 21 22 21 21 21 20 20 20 20 19 19 19 19 19 18 18 18 18 18 18 17 17 17 17 17 17 17 17 16 16 16 16 16 16 16 16 16 15 16 16
22 22 22 23 23 22 22 21 21 21 22 21 21 20 20 20 20 20 19 19 19 19 19 18 18 18 18 18 18 17 17 17 17 17 17 17 17 16 16 16 16 16 16 16 16 15 15 15 15
23 21 21 22 22 22 22 20 21 22 21 21 20 20 20 20 20 20 20 19 19 19 19 19 18 18 18 18 18 18 17 17 17 17 17 17 16 16 16 16 16 16 15 15 15 15 15 15 15
21 20 20 21 22 22 21 20 20 22 21 20 20 20 20 20 20 20 20 20 20 19 19 19 18 18 18 18 18 18 17 17 17 17 17 17 16 16 16 16 16 16 15 15 15 15 15 15 15
20 19 20 21 21 21 21 20 20 21 21 20 20 20 20 20 20 20 20 20 20 19 19 19 19 18 18 18 18 18 17 17 17 17 17 17 16 16 16 16 16 15 15 15 15 15 15 15 15
19 19 20 20 21 21 20 19 19 21 20 20 20 20 20 20 20 20 20 20 20 19 19 19 19 18 18 18 18 17 17 17 17 17 17 16 16 16 16 16 16 15 15 15 15 15 15 15 15
20 20 20 20 21 21 20 19 19 20 20 19 19 19 19 20 20 20 20 20 19 19 19 19 19 18 18 18 18 18 17 17 17 17 17 16 16 16 16 16 16 15 15 15 15 15 14 14 14
21 20 20 20 21 21 19 19 19 19 19 20 19 19 19 19 20 19 19 19 19 19 19 19 19 18 18 18 18 18 17 17 17 17 16 16 16 16 16 16 16 15 15 15 15 15 14 14 14
20 20 20 20 21 20 20 18 18 19 19 19 19 19 19 19 19 19 19 19 19 19 19 19 18 18 18 18 18 17 17 17 17 16 16 16 16 16 16 16 15 15 15 15 15 15 15 14 14
20 21 21 21 19 18 19 17 17 18 18 18 18 19 19 19 19 19 19 19 19 19 19 19 18 18 18 18 18 17 17 17 16 16 16 16 16 16 15 15 15 15 15 15 15 14 14 14 14
20 21 21 21 19 18 18 17 16 17 17 17 17 18 19 19 19 19 19 19 19 19 18 18 18 18 18 18 17 17 17 17 16 16 16 16 16 15 15 15 15 15 15 15 15 14 14 14 14
21 20 19 17 17 17 18 17 16 16 17 17 17 18 18 18 18 18 18 18 18 18 18 18 18 18 18 17 17 17 17 17 16 16 16 16 15 15 15 15 15 15 15 15 14 14 14 14 14
20 17 16 16 15 16 17 17 16 17 18 18 17 18 18 18 18 18 18 18 18 18 18 17 17 17 17 17 17 17 17 16 16 16 16 16 15 15 15 15 15 15 15 14 14 14 14 14 14
19 17 16 16 16 16 17 16 17 18 18 19 18 18 17 17 17 17 18 18 18 18 17 17 17 17 17 17 17 16 16 16 16 16 16 15 15 15 15 15 15 14 14 14 14 14 14 14 14
19 17 17 16 16 15 15 16 17 18 17 17 17 17 17 17 17 17 17 17 17 17 17 17 17 17 17 16 16 16 16 16 16 16 15 15 15 15 15 15 14 14 14 14 14 14 14 14 14
19 17 15 15 15 15 16 16 16 17 16 16 16 16 17 16 16 17 17 17 17 17 17 17 17 16 16 16 16 16 16 15 15 15 15 15 15 15 15 14 14 14 14 14 14 14 14 13 13
18 17 16 14 14 15 15 15 17 16 16 16 16 16 16 16 16 16 16 16 16 16 16 16 16 16 16 16 16 15 15 15 15 15 15 15 15 15 14 14 14 14 14 14 14 14 13 13 13
18 17 15 15 15 14 14 15 17 16 16 16 16 16 16 16 16 16 16 16 16 16 16 16 16 16 16 15 15 15 15 15 15 15 14 14 14 14 14 14 14 14 14 14 14 13 13 13 13
Wind_Speed
3 2 2 4 6 6 3 1 2 3 4 5 8 9 8 6 4 5 2 7 8 6 6 7 9 10 10 10 10 11 11 11 12 12 12 12 13 13 13 13 13 14 13 13 12 12 11 11 11
2 1 3 5 5 4 1 0 3 4 6 7 8 8 7 6 4 6 4 8 9 7 7 8 9 10 10 11 11 11 11 11 12 12 12 12 12 12 12 13 13 13 13 13 12 12 12 12 11
2 1 4 5 4 4 3 2 3 2 5 5 5 5 5 5 4 4 6 9 8 7 7 8 10 10 10 10 11 11 11 11 11 12 12 13 12 12 12 12 12 13 13 13 12 12 12 12 12
3 4 5 5 4 1 4 4 3 5 6 6 6 6 4 3 5 6 9 10 9 6 7 9 10 10 10 11 11 11 11 11 11 11 12 12 13 13 12 12 12 12 12 12 12 12 12 12 12
4 5 6 4 2 1 2 4 5 6 4 5 7 6 3 2 7 10 10 10 9 6 7 9 10 10 10 10 10 10 11 11 11 11 11 12 12 12 12 11 11 11 11 12 11 11 11 11 11
4 5 5 2 1 1 1 3 7 8 7 6 7 6 2 2 7 9 10 9 8 7 7 8 10 10 10 10 10 10 10 10 11 11 11 11 11 11 11 11 11 11 11 11 11 11 11 11 11
4 4 3 2 2 1 2 3 6 6 6 4 6 6 3 3 6 9 10 9 7 7 7 6 7 8 9 10 10 10 10 10 10 10 10 10 10 10 11 11 10 11 11 10 11 10 10 11 12
5 5 2 1 3 2 2 3 5 6 4 5 5 7 6 6 7 9 8 7 6 5 5 5 5 6 7 7 8 9 10 10 9 10 10 9 9 9 9 9 9 9 9 9 9 9 10 11 12
4 5 2 2 4 3 2 4 3 3 5 3 3 5 7 10 9 9 7 5 5 5 4 5 4 5 6 6 7 8 8 8 8 8 9 8 6 6 6 7 8 8 8 9 9 9 10 11 12
4 3 3 4 4 4 4 6 5 4 5 4 5 5 8 10 10 9 8 7 6 6 6 5 5 5 5 5 6 5 5 5 5 5 5 6 5 5 5 6 6 6 7 7 8 9 9 10 9
3 4 3 1 3 4 4 3 4 7 3 5 10 11 10 9 9 9 8 7 7 7 7 6 6 5 5 3 4 4 4 4 4 4 5 6 5 5 5 5 5 5 6 6 6 7 7 8 7
3 1 3 2 3 3 4 3 3 5 6 8 12 13 11 10 10 9 8 7 7 7 6 7 7 6 5 4 3 4 4 3 3 3 6 6 4 3 3 3 3 3 4 4 4 4 6 7 8
2 1 1 2 3 4 4 3 3 3 4 7 10 11 10 9 8 7 7 7 7 7 7 7 8 7 6 4 3 4 4 4 4 5 5 7 4 3 2 2 2 2 3 3 3 4 5 5 6
2 2 1 1 2 3 4 2 3 3 6 9 10 10 10 10 9 7 7 7 7 7 7 6 8 8 7 5 4 4 4 5 5 5 6 7 6 4 3 2 2 2 3 4 4 4 4 4 4
2 3 2 1 2 2 4 1 3 5 7 9 9 9 9 8 8 9 9 8 8 7 7 7 8 8 7 6 5 5 5 5 4 4 6 8 7 6 4 3 3 2 4 5 5 5 5 4 5
3 3 1 4 2 3 6 4 6 5 8 8 7 6 7 7 7 8 9 8 8 8 7 7 8 8 7 6 5 5 5 5 4 5 6 7 8 7 5 3 3 3 5 4 4 4 4 4 4
2 1 3 4 3 3 5 5 5 4 8 8 7 7 7 6 5 6 7 8 8 8 8 7 7 8 7 6 5 5 5 4 4 5 5 6 7 7 6 4 3 5 4 3 4 3 3 4 4
4 3 4 5 4 4 4 6 6 5 7 8 8 7 7 7 7 6 7 6 7 7 7 7 7 7 6 5 4 4 3 3 3 4 5 6 7 7 6 4 4 4 4 3 3 4 3 3 3
4 3 4 5 4 4 5 6 8 6 6 7 7 7 7 8 6 5 5 6 5 6 7 7 7 6 6 4 4 4 3 2 2 2 4 6 7 7 6 4 3 4 4 3 4 4 4 3 3
2 2 3 4 3 3 4 6 6 6 8 9 9 8 8 6 4 4 4 5 5 5 6 6 7 7 6 5 4 4 4 3 2 2 3 5 6 6 6 5 4 3 3 3 3 4 3 1 2
3 4 5 5 3 1 1 4 5 4 2 3 5 6 7 9 8 7 5 5 5 5 6 7 6 6 6 6 5 4 4 3 2 1 1 2 5 5 5 5 4 4 4 3 3 4 4 2 0
4 5 5 3 0 3 1 3 6 4 2 3 4 5 7 7 7 7 7 6 5 5 5 6 6 6 5 6 7 7 5 4 2 2 2 1 3 4 4 5 4 3 3 3 3 3 3 4 2
5 5 4 3 3 2 2 3 6 2 2 5 5 5 6 7 8 8 8 7 6 5 5 6 6 6 6 6 7 7 5 4 2 2 3 2 2 3 4 4 4 4 3 3 3 3 3 3 3
1 2 4 4 3 2 4 4 5 3 5 5 4 4 5 6 7 7 6 5 4 4 4 5 6 5 5 5 6 6 7 6 5 4 3 2 1 1 2 4 3 3 3 3 3 3 4 3 3
3 4 3 4 3 4 2 3 5 5 4 5 5 5 5 5 6 6 6 6 5 5 5 5 6 5 4 5 5 5 6 7 7 5 4 3 2 1 2 3 3 2 3 3 3 3 3 3 3
3 6 6 4 4 4 2 3 4 3 1 2 3 5 5 5 5 5 6 6 5 5 5 6 6 5 5 4 4 4 5 5 4 5 5 4 3 3 4 3 3 3 3 4 3 3 2 2 3
3 3 6 5 2 2 3 3 3 3 4 3 4 4 4 4 4 4 4 5 5 5 5 6 6 5 4 5 4 4 4 4 4 3 4 3 3 3 4 4 3 3 3 4 4 3 2 2 2
4 5 5 4 2 2 3 3 4 2 1 2 3 3 3 4 4 3 3 3 4 4 4 5 5 5 4 4 4 4 4 4 4 3 3 3 4 3 4 4 4 4 3 4 4 3 2 2 2
1 2 3 3 4 4 3 5 4 5 4 4 3 3 3 4 5 4 3 3 2 2 3 3 4 4 4 4 3 3 3 3 3 3 3 3 3 3 4 4 4 4 4 4 4 3 3 3 2
4 4 5 3 3 3 3 5 4 1 1 3 2 2 2 2 3 3 3 3 2 2 2 2 3 4 4 4 4 3 3 3 3 2 2 2 2 2 3 3 3 3 3 3 4 4 3 3 3
Wind_Direction
304 323 84 58 54 56 67 347 127 68 57 59 74 84 86 70 94 134 177 135 133 132 119 110 104 98 93 92 93 93 90 90 88 85 84 82 82 82 81 83 84 84 84 83 81 81 80 82 86
327 5 65 58 79 79 15 204 103 107 134 123 80 79 79 70 81 116 126 140 133 131 125 114 109 102 95 92 94 94 92 93 92 90 88 87 87 85 82 82 83 83 83 82 80 78 79 80 80
306 65 75 66 93 141 161 187 153 99 109 101 78 58 80 113 117 131 148 145 132 129 128 120 113 106 99 95 95 95 93 93 93 92 90 89 89 89 86 83 83 83 83 84 82 79 79 78 76
53 43 55 70 84 174 169 179 147 94 62 68 98 69 58 110 144 143 141 137 131 131 130 126 118 110 104 99 97 98 97 96 95 94 93 91 90 89 90 88 85 85 85 84 83 80 77 74 72
64 67 57 56 69 45 139 138 115 93 78 77 96 93 63 37 122 134 136 137 137 138 134 130 124 118 112 106 103 101 99 97 96 95 95 92 91 91 92 90 88 88 89 85 82 80 76 72 69
53 65 76 79 80 44 71 107 100 93 102 103 100 105 110 146 128 139 140 144 145 142 137 132 131 126 120 114 110 105 101 99 96 96 98 95 94 92 92 92 90 91 89 87 84 82 75 69 67
103 91 115 137 102 77 131 113 105 113 122 142 131 109 135 171 153 144 144 144 140 138 134 132 135 132 129 125 118 111 106 103 99 99 100 97 94 93 93 89 89 91 89 88 85 83 77 72 70
128 100 72 107 131 170 165 105 116 116 121 134 124 133 165 193 162 137 135 133 130 131 132 136 140 137 131 130 127 116 111 107 103 101 102 100 96 94 93 89 88 91 90 88 85 81 78 74 72
97 81 111 186 168 187 151 108 76 83 101 94 112 152 165 158 141 127 126 128 140 142 144 145 145 139 137 142 136 126 118 114 109 102 100 98 93 92 90 89 86 89 89 86 86 83 80 74 72
92 122 198 199 174 157 130 126 129 90 85 87 82 104 134 141 143 145 148 152 157 160 161 157 159 156 150 146 134 128 125 122 113 107 103 105 98 94 92 84 80 80 79 76 79 79 72 70 70
129 165 177 150 149 135 127 126 120 121 133 167 154 157 154 149 154 157 159 160 165 163 159 163 166 160 160 145 138 132 126 124 115 110 109 107 95 90 87 78 69 63 60 58 64 64 64 69 74
126 188 151 150 124 118 133 130 117 148 190 180 162 160 159 158 165 167 165 165 157 156 161 163 166 159 156 142 138 136 130 129 126 122 123 114 101 91 94 83 74 61 59 60 67 71 66 71 79
121 172 129 142 117 127 121 135 148 186 177 148 147 154 164 167 171 171 166 164 154 158 165 161 159 158 151 142 141 133 134 139 145 132 133 124 115 112 106 83 75 67 73 85 83 80 80 77 76
181 167 166 146 131 139 131 145 127 197 155 145 155 166 176 175 169 160 162 161 163 167 165 157 155 156 148 144 139 138 139 138 134 130 142 139 132 123 112 90 79 72 87 96 93 91 93 84 82
107 84 15 237 164 164 122 347 208 191 154 156 164 172 179 182 171 171 175 172 172 168 162 156 156 155 149 145 147 139 142 140 133 135 141 140 139 133 119 100 83 82 91 91 87 79 84 85 79
64 67 335 271 193 169 134 232 248 183 156 169 173 175 181 187 181 181 177 175 174 164 160 159 153 152 150 144 142 136 139 133 131 135 136 137 138 135 121 105 97 98 97 92 87 79 77 75 72
40 166 231 267 234 171 156 220 243 193 168 181 184 185 185 189 194 187 179 177 172 168 160 153 147 147 147 142 136 132 130 123 126 132 127 132 137 135 124 113 109 107 93 79 90 80 88 88 80
220 219 233 238 242 177 187 230 241 207 182 191 192 187 183 184 195 188 179 174 169 168 157 151 145 145 138 129 116 110 105 110 114 123 133 134 136 133 125 115 109 106 97 83 84 88 72 86 92
194 208 241 251 235 185 212 233 247 227 202 200 195 188 186 190 193 172 163 154 151 160 153 153 151 152 142 133 129 136 145 145 130 127 132 133 136 135 128 121 117 109 111 119 115 105 90 67 82
190 208 268 283 263 199 219 244 249 221 207 199 191 185 180 171 151 152 144 140 147 155 162 162 160 160 160 155 149 151 152 150 150 128 117 131 138 144 141 136 136 128 118 109 110 112 107 97 89
240 203 229 249 301 342 112 310 286 276 227 183 181 180 176 173 169 168 157 149 144 149 168 171 162 164 161 151 128 113 94 80 73 90 123 138 150 150 147 146 141 141 138 144 145 141 132 141 68
235 232 220 224 127 278 170 259 283 261 247 211 199 182 181 175 167 166 163 165 165 168 166 163 157 155 154 148 145 145 146 150 173 169 162 141 134 137 140 142 140 145 145 153 164 148 144 140 147
225 240 232 219 181 267 264 185 283 297 234 236 217 195 184 176 169 168 170 172 164 156 154 159 153 152 150 151 155 154 154 159 151 140 141 146 135 140 140 140 138 147 152 159 158 145 144 145 155
218 13 18 39 82 269 240 183 271 238 218 226 219 187 173 172 168 167 166 155 143 140 139 145 145 148 149 149 156 163 163 160 151 159 164 164 154 155 147 143 147 154 154 162 164 157 155 159 156
68 81 23 355 1 256 248 174 244 254 221 201 197 188 180 166 155 155 152 151 148 147 146 146 144 142 154 153 159 166 171 173 171 176 177 172 167 173 191 158 162 164 166 165 155 146 155 158 163
189 146 158 204 230 276 327 219 248 279 266 172 161 154 146 145 153 157 159 160 160 157 157 152 151 153 159 161 168 169 169 172 180 182 178 184 186 194 193 169 165 167 168 167 154 149 160 153 166
154 179 172 157 226 243 273 280 310 23 34 69 99 121 144 151 151 154 154 155 157 163 168 166 161 157 165 169 163 160 167 167 173 179 178 185 192 195 185 175 177 181 179 174 160 161 173 161 171
155 153 99 131 183 247 276 252 239 232 187 113 121 134 152 150 150 149 156 160 169 170 174 167 164 167 171 170 167 163 168 176 176 165 183 192 195 194 179 186 187 190 190 181 169 167 177 161 181
103 115 121 141 162 176 240 264 236 201 185 173 178 168 158 163 164 163 171 179 167 165 160 166 175 165 168 171 159 156 164 164 160 169 188 196 200 193 185 193 193 194 199 190 176 181 174 172 189
171 175 143 155 226 180 197 266 302 236 185 166 172 163 151 162 162 155 157 156 145 146 172 177 172 172 180 175 159 161 164 156 152 162 184 181 180 181 174 176 183 189 185 181 176 188 184 180 196
Height
1501 1500 1500 1501 1505 1516 1520 1514 1508 1506 1507 1508 1506 1507 1511 1515 1518 1525 1522 1521 1522 1521 1521 1521 1520 1520 1519 1519 1518 1518 1517 1517 1517 1516 1516 1516 1516 1515 1515 1515 1514 1514 1514 1514 1514 1514 1514 1514 1514
1501 1501 1502 1502 1514 1527 1523 1512 1509 1506 1507 1507 1508 1510 1512 1516 1517 1519 1520 1522 1522 1522 1522 1522 1521 1521 1520 1520 1519 1519 1518 1518 1518 1517 1517 1517 1517 1516 1516 1516 1515 1515 1515 1515 1515 1515 1515 1515 1515
1502 1501 1503 1506 1516 1523 1519 1510 1508 1506 1506 1507 1510 1513 1515 1518 1519 1520 1521 1522 1523 1523 1523 1522 1522 1522 1521 1521 1520 1520 1519 1519 1519 1518 1518 1518 1518 1517 1517 1517 1517 1517 1517 1516 1516 1516 1516 1516 1516
1502 1503 1504 1512 1516 1513 1510 1507 1506 1507 1508 1509 1511 1515 1517 1520 1520 1520 1522 1523 1523 1523 1523 1523 1523 1522 1522 1522 1521 1521 1520 1520 1520 1519 1519 1519 1518 1518 1518 1518 1518 1518 1518 1518 1518 1518 1517 1517 1517
1503 1504 1511 1518 1515 1510 1507 1506 1506 1507 1509 1511 1512 1517 1519 1521 1521 1521 1523 1524 1524 1524 1524 1524 1524 1524 1523 1523 1523 1522 1522 1521 1521 1520 1520 1520 1519 1519 1519 1519 1519 1519 1519 1519 1519 1519 1519 1519 1518
1504 1506 1519 1524 1516 1510 1508 1506 1507 1509 1511 1513 1514 1517 1521 1522 1522 1523 1524 1525 1525 1525 1525 1525 1525 1525 1525 1524 1524 1524 1523 1522 1522 1522 1521 1521 1521 1520 1520 1520 1520 1520 1520 1520 1520 1520 1520 1520 1519
1506 1511 1518 1519 1518 1513 1509 1507 1508 1510 1512 1513 1514 1518 1521 1523 1523 1524 1525 1525 1526 1526 1526 1526 1526 1526 1526 1525 1525 1525 1524 1524 1524 1523 1523 1523 1522 1522 1522 1522 1522 1522 1522 1522 1522 1521 1521 1521 1520
1504 1510 1516 1518 1517 1514 1508 1508 1509 1510 1512 1514 1515 1517 1520 1522 1523 1524 1525 1526 1526 1527 1527 1527 1527 1527 1527 1527 1527 1526 1526 1526 1525 1525 1524 1524 1524 1524 1523 1523 1523 1524 1523 1523 1523 1523 1523 1522 1522
1504 1514 1520 1516 1514 1511 1508 1509 1510 1511 1512 1514 1514 1515 1518 1521 1523 1524 1525 1526 1527 1527 1527 1528 1528 1528 1528 1528 1528 1528 1527 1527 1527 1526 1526 1526 1525 1525 1525 1525 1525 1525 1525 1525 1525 1524 1524 1524 1523
1505 1516 1513 1508 1507 1508 1508 1508 1510 1512 1513 1515 1515 1517 1519 1520 1522 1523 1524 1525 1526 1527 1528 1528 1528 1529 1529 1529 1529 1529 1529 1528 1528 1528 1527 1527 1527 1526 1526 1526 1526 1526 1526 1526 1526 1526 1525 1525 1524
1505 1509 1506 1505 1505 1506 1507 1509 1510 1512 1515 1514 1515 1516 1519 1520 1522 1523 1524 1524 1525 1527 1528 1528 1529 1529 1529 1530 1530 1530 1530 1530 1530 1529 1529 1529 1528 1528 1528 1528 1528 1528 1528 1528 1527 1527 1527 1526 1526
1505 1505 1505 1505 1505 1506 1507 1509 1510 1511 1512 1512 1514 1515 1518 1520 1521 1522 1523 1524 1525 1526 1527 1528 1529 1529 1530 1531 1531 1531 1531 1531 1531 1531 1530 1530 1530 1529 1529 1529 1529 1529 1529 1529 1529 1528 1528 1528 1527
1505 1505 1505 1505 1505 1506 1507 1508 1510 1511 1511 1512 1514 1516 1518 1519 1521 1522 1523 1525 1526 1526 1527 1528 1529 1530 1530 1531 1532 1532 1532 1532 1532 1532 1532 1531 1531 1531 1531 1530 1530 1530 1530 1530 1530 1530 1529 1529 1529
1504 1504 1505 1505 1505 1506 1507 1508 1510 1510 1511 1512 1514 1515 1517 1518 1519 1521 1523 1524 1525 1526 1527 1528 1529 1530 1530 1531 1532 1532 1532 1532 1532 1532 1532 1532 1532 1532 1532 1531 1531 1531 1531 1531 1531 1531 1530 1530 1530
1504 1506 1506 1505 1505 1506 1508 1512 1509 1509 1510 1511 1513 1514 1516 1517 1519 1520 1521 1522 1524 1525 1526 1527 1528 1529 1530 1531 1532 1532 1533 1533 1533 1533 1533 1533 1533 1533 1533 1533 1532 1532 1532 1532 1531 1531 1531 1531 1531
1505 1511 1516 1507 1505 1505 1511 1518 1508 1508 1509 1511 1512 1513 1515 1516 1517 1519 1520 1521 1523 1524 1525 1527 1528 1529 1530 1531 1532 1532 1533 1533 1533 1533 1534 1534 1534 1534 1534 1534 1533 1533 1533 1532 1532 1532 1532 1532 1531
1513 1520 1518 1511 1504 1505 1509 1513 1507 1506 1508 1509 1510 1511 1513 1515 1516 1517 1518 1520 1521 1523 1524 1525 1527 1528 1529 1530 1532 1532 1533 1533 1533 1534 1534 1534 1534 1534 1534 1534 1534 1534 1534 1533 1533 1532 1533 1533 1533
1519 1518 1515 1512 1505 1505 1509 1509 1505 1505 1506 1507 1508 1509 1510 1512 1514 1515 1517 1518 1520 1521 1523 1524 1526 1527 1528 1530 1531 1532 1532 1533 1533 1534 1534 1534 1534 1534 1534 1534 1535 1534 1534 1534 1534 1534 1534 1534 1534
1509 1512 1514 1509 1502 1505 1508 1508 1505 1503 1504 1504 1505 1506 1508 1509 1512 1513 1515 1516 1518 1520 1522 1523 1525 1526 1527 1528 1529 1531 1531 1532 1533 1533 1534 1534 1534 1534 1534 1534 1534 1534 1535 1535 1535 1535 1535 1535 1534
1506 1511 1512 1507 1501 1503 1507 1507 1502 1501 1501 1501 1502 1504 1505 1507 1509 1511 1513 1515 1516 1518 1520 1522 1523 1524 1526 1527 1528 1530 1531 1532 1532 1533 1533 1534 1534 1534 1534 1534 1534 1534 1535 1535 1535 1535 1535 1535 1535
1506 1509 1510 1509 1503 1502 1507 1511 1506 1501 1500 1501 1501 1502 1503 1505 1507 1509 1511 1513 1515 1516 1519 1520 1522 1524 1525 1526 1527 1529 1530 1531 1532 1532 1533 1533 1533 1534 1534 1534 1534 1534 1534 1534 1535 1535 1535 1535 1536
1509 1501 1501 1504 1511 1517 1511 1526 1512 1504 1502 1501 1501 1501 1502 1503 1505 1507 1508 1511 1513 1515 1517 1519 1520 1522 1524 1525 1526 1527 1528 1528 1530 1531 1532 1532 1533 1533 1533 1534 1534 1534 1534 1534 1534 1535 1535 1535 1535
1501 1496 1498 1501 1509 1516 1514 1522 1518 1506 1506 1502 1500 1500 1500 1501 1503 1504 1506 1508 1511 1513 1515 1517 1519 1520 1522 1523 1524 1525 1526 1527 1528 1530 1530 1531 1531 1532 1532 1533 1533 1533 1533 1533 1534 1534 1534 1535 1535
1495 1498 1502 1508 1514 1526 1516 1522 1521 1509 1503 1499 1498 1498 1499 1500 1501 1503 1505 1507 1509 1512 1513 1515 1517 1518 1519 1521 1522 1523 1524 1525 1527 1527 1528 1529 1530 1530 1531 1531 1531 1532 1532 1533 1533 1533 1533 1534 1534
1499 1512 1527 1529 1533 1529 1514 1517 1515 1499 1495 1495 1496 1496 1497 1498 1499 1502 1504 1506 1508 1510 1511 1513 1514 1516 1517 1519 1520 1521 1522 1524 1524 1525 1526 1527 1528 1528 1529 1529 1530 1530 1531 1531 1532 1532 1532 1532 1533
1501 1510 1529 1537 1537 1529 1516 1518 1508 1495 1493 1493 1493 1495 1496 1497 1499 1500 1502 1504 1506 1508 1509 1511 1512 1514 1515 1517 1518 1519 1521 1522 1523 1523 1524 1525 1526 1526 1527 1528 1528 1529 1529 1530 1530 1531 1531 1531 1531
1502 1508 1508 1522 1524 1530 1524 1513 1503 1496 1495 1494 1494 1495 1496 1497 1498 1500 1501 1503 1504 1506 1508 1509 1510 1512 1513 1514 1516 1517 1519 1520 1521 1521 1522 1523 1524 1525 1525 1526 1526 1527 1527 1528 1528 1529 1529 1529 1529
1496 1501 1513 1521 1530 1534 1525 1518 1513 1502 1499 1497 1496 1496 1496 1497 1498 1500 1501 1502 1504 1505 1506 1507 1509 1510 1511 1513 1514 1515 1516 1518 1519 1520 1520 1521 1521 1522 1523 1523 1524 1524 1525 1525 1526 1526 1527 1527 1527
1500 1503 1509 1518 1522 1530 1532 1522 1499 1498 1496 1496 1496 1496 1497 1497 1498 1499 1500 1502 1503 1504 1505 1506 1507 1508 1510 1511 1512 1513 1514 1515 1517 1517 1518 1518 1519 1519 1520 1520 1521 1521 1522 1523 1523 1524 1525 1525 1525
1496 1500 1508 1520 1522 1523 1527 1520 1495 1495 1494 1495 1496 1497 1497 1498 1498 1499 1499 1501 1502 1503 1504 1504 1505 1506 1508 1509 1511 1512 1512 1513 1514 1515 1515 1516 1516 1516 1516 1517 1517 1518 1519 1520 1520 1521 1522 1522 1522